| time (UTC) | temp F | wind direction | speed MPH | gust MPH | rain 1hr in | rain 24hr in | rain mn in | humidity % | barometer mb |
| 20260905112518 | 52 | 310 | 7.0 | 12.0 | 0.00 | 0.00 | 0.00 | 1 | 1018.9 |
| 20260905112018 | 51 | 334 | 7.0 | 10.0 | 0.00 | 0.00 | 0.00 | 1 | 1018.9 |
| 20260905111555 | 51 | 325 | 6.0 | 8.0 | 0.00 | 0.00 | 0.00 | 1 | 1018.7 |
| 20260905111020 | 50 | 323 | 5.0 | 8.0 | 0.00 | 0.00 | 0.00 | 1 | 1018.7 |
| 20260905110528 | 50 | 307 | 5.0 | 8.0 | 0.00 | 0.00 | 0.00 | 1 | 1018.7 |
| 20260905110046 | 50 | 349 | 3.0 | 5.0 | 0.00 | 0.00 | 0.00 | 1 | 1018.7 |
| 20260905105518 | 51 | 349 | 2.0 | 5.0 | 0.00 | 0.00 | 0.00 | 1 | 1018.8 |
| 20260905105017 | 51 | 349 | 4.0 | 5.0 | 0.00 | 0.00 | 0.00 | 1 | 1018.8 |
| 20260905104541 | 51 | 349 | 2.0 | 3.0 | 0.00 | 0.00 | 0.00 | 1 | 1018.6 |
| 20260905104016 | 51 | 349 | 1.0 | 6.0 | 0.00 | 0.00 | 0.00 | 1 | 1018.3 |
| 20260905103516 | 51 | 349 | 4.0 | 6.0 | 0.00 | 0.00 | 0.00 | 1 | 1018.0 |
| 20260905103056 | 52 | 355 | 2.0 | 6.0 | 0.00 | 0.00 | 0.00 | 1 | 1018.8 |
| 20260905102520 | 52 | 355 | 2.0 | 9.0 | 0.00 | 0.00 | 0.00 | 1 | 1018.7 |
| 20260905102020 | 53 | 348 | 5.0 | 9.0 | 0.00 | 0.00 | 0.00 | 1 | 1018.3 |
| 20260905101548 | 53 | 5 | 4.0 | 11.0 | 0.00 | 0.00 | 0.00 | 1 | 1018.3 |
| 20260905101017 | 53 | 344 | 7.0 | 11.0 | 0.00 | 0.00 | 0.00 | 1 | 1018.3 |
| 20260905100517 | 53 | 323 | 7.0 | 11.0 | 0.00 | 0.00 | 0.00 | 1 | 1018.3 |
| 20260905100106 | 53 | 304 | 3.0 | 6.0 | 0.00 | 0.00 | 0.00 | 1 | 1018.3 |
| 20260905095517 | 54 | 320 | 0.0 | 10.0 | 0.00 | 0.00 | 0.00 | 1 | 1018.2 |
| 20260905095018 | 54 | 320 | 2.0 | 10.0 | 0.00 | 0.00 | 0.00 | 1 | 1018.2 |
| 20260905094551 | 53 | 337 | 5.0 | 8.0 | 0.00 | 0.00 | 0.00 | 1 | 1018.1 |
| 20260905094017 | 54 | 340 | 5.0 | 10.0 | 0.00 | 0.00 | 0.00 | 1 | 1018.1 |
| 20260905093518 | 54 | 329 | 6.0 | 10.0 | 0.00 | 0.00 | 0.00 | 1 | 1018.3 |
| 20260905093051 | 54 | 265 | 1.0 | 7.0 | 0.00 | 0.00 | 0.00 | 1 | 1018.3 |
| 20260905092519 | 54 | 265 | 5.0 | 7.0 | 0.00 | 0.00 | 0.00 | 1 | 1018.1 |
| 20260905092020 | 55 | 240 | 3.0 | 8.0 | 0.00 | 0.00 | 0.00 | 1 | 1018.2 |
| 20260905091554 | 55 | 240 | 5.0 | 8.0 | 0.00 | 0.00 | 0.00 | 1 | 1017.9 |
| 20260905091021 | 55 | 219 | 4.0 | 5.0 | 0.00 | 0.00 | 0.00 | 1 | 1017.7 |
| 20260905090519 | 54 | 9 | 3.0 | 5.0 | 0.00 | 0.00 | 0.00 | 1 | 1017.6 |
| 20260905090057 | 54 | 9 | 1.0 | 3.0 | 0.00 | 0.00 | 0.00 | 1 | 1017.6 |
| 20260905085518 | 54 | 9 | 0.0 | 2.0 | 0.00 | 0.00 | 0.00 | 1 | 1017.6 |
| 20260905085021 | 54 | 9 | 0.0 | 1.0 | 0.00 | 0.00 | 0.00 | 1 | 1017.8 |
| 20260905084605 | 54 | 9 | 0.0 | 3.0 | 0.00 | 0.00 | 0.00 | 1 | 1017.6 |
| 20260905084017 | 55 | 9 | 1.0 | 4.0 | 0.00 | 0.00 | 0.00 | 1 | 1017.2 |
| 20260905083524 | 55 | 9 | 1.0 | 6.0 | 0.00 | 0.00 | 0.00 | 1 | 1017.0 |
| 20260905083051 | 56 | 9 | 4.0 | 9.0 | 0.00 | 0.00 | 0.00 | 1 | 1016.9 |
| 20260905082519 | 56 | 334 | 5.0 | 11.0 | 0.00 | 0.00 | 0.00 | 1 | 1016.8 |
| 20260905082019 | 56 | 344 | 7.0 | 13.0 | 0.00 | 0.00 | 0.00 | 1 | 1016.7 |
| 20260905081547 | 56 | 360 | 10.0 | 13.0 | 0.00 | 0.00 | 0.00 | 1 | 1016.8 |
| 20260905081021 | 55 | 339 | 7.0 | 11.0 | 0.00 | 0.00 | 0.00 | 1 | 1017.2 |
| 20260905080516 | 56 | 313 | 5.0 | 9.0 | 0.00 | 0.00 | 0.00 | 1 | 1017.7 |
| 20260905080113 | 56 | 304 | 5.0 | 9.0 | 0.00 | 0.00 | 0.00 | 1 | 1017.9 |
| 20260905075521 | 56 | 334 | 6.0 | 11.0 | 0.00 | 0.00 | 0.00 | 1 | 1017.7 |
| 20260905075019 | 56 | 333 | 7.0 | 14.0 | 0.00 | 0.00 | 0.00 | 1 | 1017.8 |
| 20260905074546 | 57 | 323 | 7.0 | 14.0 | 0.00 | 0.00 | 0.00 | 1 | 1017.9 |
| 20260905074020 | 57 | 350 | 10.0 | 14.0 | 0.00 | 0.00 | 0.00 | 1 | 1017.8 |
| 20260905073517 | 56 | 314 | 9.0 | 16.0 | 0.00 | 0.00 | 0.00 | 1 | 1018.0 |
| 20260905073055 | 56 | 346 | 11.0 | 16.0 | 0.00 | 0.00 | 0.00 | 1 | 1017.8 |
| 20260905072518 | 56 | 308 | 5.0 | 11.0 | 0.00 | 0.00 | 0.00 | 1 | 1017.7 |
| 20260905072018 | 56 | 311 | 6.0 | 12.0 | 0.00 | 0.00 | 0.00 | 1 | 1017.7 |
| 20260905071551 | 56 | 336 | 8.0 | 14.0 | 0.00 | 0.00 | 0.00 | 1 | 1017.7 |
| 20260905071021 | 57 | 333 | 8.0 | 16.0 | 0.00 | 0.00 | 0.00 | 1 | 1017.6 |
| 20260905070516 | 57 | 332 | 7.0 | 16.0 | 0.00 | 0.00 | 0.00 | 1 | 1017.7 |
| 20260905070055 | 57 | 338 | 10.0 | 16.0 | 0.00 | 0.00 | 0.00 | 1 | 1017.3 |
| 20260905065517 | 57 | 360 | 9.0 | 16.0 | 0.00 | 0.00 | 0.00 | 1 | 1017.4 |
| 20260905065019 | 56 | 336 | 11.0 | 16.0 | 0.00 | 0.00 | 0.00 | 1 | 1017.2 |
| 20260905064553 | 56 | 292 | 10.0 | 16.0 | 0.00 | 0.00 | 0.00 | 1 | 1017.4 |
| 20260905064020 | 56 | 309 | 11.0 | 18.0 | 0.00 | 0.00 | 0.00 | 1 | 1017.6 |
| 20260905063519 | 56 | 328 | 12.0 | 17.0 | 0.00 | 0.00 | 0.00 | 1 | 1017.4 |
| 20260905063055 | 57 | 343 | 12.0 | 17.0 | 0.00 | 0.00 | 0.00 | 1 | 1017.4 |
| 20260905062516 | 56 | 309 | 10.0 | 16.0 | 0.00 | 0.00 | 0.00 | 1 | 1017.6 |
| 20260905062016 | 57 | 325 | 11.0 | 16.0 | 0.00 | 0.00 | 0.00 | 1 | 1017.5 |
| 20260905061558 | 56 | 342 | 9.0 | 15.0 | 0.00 | 0.00 | 0.00 | 1 | 1017.6 |
| 20260905061022 | 56 | 279 | 7.0 | 11.0 | 0.00 | 0.00 | 0.00 | 1 | 1017.6 |
| 20260905060518 | 56 | 336 | 7.0 | 11.0 | 0.00 | 0.00 | 0.00 | 1 | 1017.5 |
| 20260905060056 | 56 | 339 | 5.0 | 10.0 | 0.00 | 0.00 | 0.00 | 1 | 1017.5 |
| 20260905055518 | 56 | 298 | 4.0 | 10.0 | 0.00 | 0.00 | 0.00 | 1 | 1017.6 |
| 20260905055022 | 57 | 309 | 4.0 | 13.0 | 0.00 | 0.00 | 0.00 | 1 | 1017.3 |
| 20260905054552 | 57 | 271 | 6.0 | 13.0 | 0.00 | 0.00 | 0.00 | 1 | 1017.4 |
| 20260905054023 | 57 | 314 | 7.0 | 15.0 | 0.00 | 0.00 | 0.00 | 1 | 1017.1 |
| 20260905053519 | 57 | 346 | 10.0 | 16.0 | 0.00 | 0.00 | 0.00 | 1 | 1016.7 |
| 20260905053108 | 57 | 344 | 11.0 | 18.0 | 0.00 | 0.00 | 0.00 | 1 | 1016.5 |
| 20260905052517 | 57 | 325 | 13.0 | 19.0 | 0.00 | 0.00 | 0.00 | 1 | 1016.3 |
| 20260905052016 | 57 | 339 | 12.0 | 19.0 | 0.00 | 0.00 | 0.00 | 1 | 1016.8 |
| 20260905051555 | 57 | 340 | 13.0 | 18.0 | 0.00 | 0.00 | 0.00 | 1 | 1016.8 |
| 20260905051022 | 58 | 298 | 12.0 | 23.0 | 0.00 | 0.00 | 0.00 | 1 | 1017.2 |
| 20260905050521 | 58 | 335 | 16.0 | 23.0 | 0.00 | 0.00 | 0.00 | 1 | 1016.9 |
| 20260905050050 | 57 | 332 | 14.0 | 20.0 | 0.00 | 0.00 | 0.00 | 1 | 1016.8 |
| 20260905045520 | 57 | 296 | 8.0 | 12.0 | 0.00 | 0.00 | 0.00 | 1 | 1017.0 |
| 20260905045023 | 57 | 295 | 8.0 | 15.0 | 0.00 | 0.00 | 0.00 | 1 | 1017.3 |
| 20260905044549 | 58 | 328 | 9.0 | 15.0 | 0.00 | 0.00 | 0.00 | 1 | 1017.2 |
| 20260905044018 | 58 | 346 | 11.0 | 15.0 | 0.00 | 0.00 | 0.00 | 1 | 1016.9 |
| 20260905043520 | 59 | 349 | 9.0 | 13.0 | 0.00 | 0.00 | 0.00 | 1 | 1017.0 |
| 20260905043108 | 59 | 348 | 5.0 | 13.0 | 0.00 | 0.00 | 0.00 | 1 | 1017.3 |
| 20260905042521 | 59 | 315 | 6.0 | 19.0 | 0.00 | 0.00 | 0.00 | 1 | 1017.3 |
| 20260905042228 | 60 | 290 | 7.0 | 20.0 | 0.00 | 0.00 | 0.00 | 1 | 1017.2 |
| 20260905041542 | 60 | 311 | 12.0 | 22.0 | 0.00 | 0.00 | 0.00 | 1 | 1017.1 |
| 20260905041016 | 61 | 305 | 15.0 | 25.0 | 0.00 | 0.00 | 0.00 | 1 | 1016.6 |
| 20260905040517 | 60 | 329 | 18.0 | 25.0 | 0.00 | 0.00 | 0.00 | 1 | 1016.0 |
| 20260905040051 | 60 | 312 | 10.0 | 17.0 | 0.00 | 0.00 | 0.00 | 1 | 1016.2 |
| 20260905035518 | 61 | 303 | 11.0 | 19.0 | 0.00 | 0.00 | 0.00 | 1 | 1016.2 |
| 20260905035019 | 61 | 351 | 14.0 | 20.0 | 0.00 | 0.00 | 0.00 | 1 | 1016.1 |
| 20260905034545 | 61 | 333 | 14.0 | 22.0 | 0.00 | 0.00 | 0.00 | 1 | 1015.8 |
| 20260905034018 | 61 | 340 | 15.0 | 24.0 | 0.00 | 0.00 | 0.00 | 1 | 1015.5 |
| 20260905033519 | 61 | 331 | 17.0 | 23.0 | 0.00 | 0.00 | 0.00 | 1 | 1015.3 |
| 20260905033047 | 61 | 319 | 14.0 | 20.0 | 0.00 | 0.00 | 0.00 | 1 | 1015.8 |
| 20260905032520 | 61 | 345 | 13.0 | 23.0 | 0.00 | 0.00 | 0.00 | 1 | 1016.0 |
| 20260905032020 | 61 | 321 | 16.0 | 25.0 | 0.00 | 0.00 | 0.00 | 1 | 1015.9 |
| 20260905031548 | 61 | 17 | 15.0 | 20.0 | 0.00 | 0.00 | 0.00 | 1 | 1015.6 |
| 20260905031020 | 61 | 332 | 12.0 | 21.0 | 0.00 | 0.00 | 0.00 | 1 | 1015.7 |
| 20260905030518 | 61 | 313 | 15.0 | 22.0 | 0.00 | 0.00 | 0.00 | 1 | 1015.9 |
| 20260905030049 | 61 | 316 | 16.0 | 24.0 | 0.00 | 0.00 | 0.00 | 1 | 1015.5 |
| 20260905025520 | 61 | 338 | 17.0 | 24.0 | 0.00 | 0.00 | 0.00 | 1 | 1015.3 |
| 20260905025019 | 61 | 330 | 12.0 | 24.0 | 0.00 | 0.00 | 0.00 | 1 | 1015.3 |
| 20260905024551 | 61 | 344 | 14.0 | 23.0 | 0.00 | 0.00 | 0.00 | 1 | 1015.1 |
| 20260905024015 | 61 | 336 | 14.0 | 22.0 | 0.00 | 0.00 | 0.00 | 1 | 1015.0 |
| 20260905023523 | 61 | 320 | 15.0 | 23.0 | 0.00 | 0.00 | 0.00 | 1 | 1014.9 |
| 20260905023051 | 61 | 352 | 17.0 | 25.0 | 0.00 | 0.00 | 0.00 | 1 | 1014.7 |
| 20260905022517 | 62 | 346 | 15.0 | 25.0 | 0.00 | 0.00 | 0.00 | 1 | 1014.6 |
| 20260905022021 | 62 | 335 | 17.0 | 22.0 | 0.00 | 0.00 | 0.00 | 1 | 1014.6 |
| 20260905021552 | 62 | 269 | 13.0 | 28.0 | 0.00 | 0.00 | 0.00 | 1 | 1014.9 |
| 20260905021019 | 62 | 329 | 20.0 | 31.0 | 0.00 | 0.00 | 0.00 | 1 | 1014.2 |
| 20260905020522 | 62 | 316 | 20.0 | 31.0 | 0.00 | 0.00 | 0.00 | 1 | 1013.8 |
| 20260905020050 | 62 | 316 | 17.0 | 26.0 | 0.00 | 0.00 | 0.00 | 1 | 1013.4 |
| 20260905015516 | 62 | 324 | 18.0 | 27.0 | 0.00 | 0.00 | 0.00 | 1 | 1013.6 |
| 20260905015019 | 62 | 335 | 20.0 | 30.0 | 0.00 | 0.00 | 0.00 | 1 | 1013.8 |
| 20260905014551 | 62 | 322 | 19.0 | 30.0 | 0.00 | 0.00 | 0.00 | 1 | 1013.5 |
| 20260905014022 | 62 | 326 | 14.0 | 23.0 | 0.00 | 0.00 | 0.00 | 1 | 1013.9 |
| 20260905013518 | 62 | 331 | 16.0 | 22.0 | 0.00 | 0.00 | 0.00 | 1 | 1013.7 |
| 20260905013046 | 62 | 342 | 14.0 | 23.0 | 0.00 | 0.00 | 0.00 | 1 | 1013.6 |
| 20260905012519 | 63 | 347 | 14.0 | 27.0 | 0.00 | 0.00 | 0.00 | 1 | 1013.7 |
| 20260905012016 | 63 | 360 | 20.0 | 30.0 | 0.00 | 0.00 | 0.00 | 1 | 1013.2 |
| 20260905011600 | 64 | 331 | 20.0 | 30.0 | 0.00 | 0.00 | 0.00 | 1 | 1013.3 |
| 20260905011018 | 64 | 321 | 21.0 | 30.0 | 0.00 | 0.00 | 0.00 | 1 | 1013.4 |
| 20260905010519 | 64 | 326 | 17.0 | 24.0 | 0.00 | 0.00 | 0.00 | 1 | 1013.6 |
| 20260905010047 | 64 | 319 | 18.0 | 27.0 | 0.00 | 0.00 | 0.00 | 1 | 1013.4 |
| 20260905005516 | 64 | 316 | 18.0 | 27.0 | 0.00 | 0.00 | 0.00 | 1 | 1013.4 |
| 20260905005016 | 64 | 331 | 15.0 | 23.0 | 0.00 | 0.00 | 0.00 | 1 | 1013.4 |
| 20260905004548 | 64 | 313 | 16.0 | 23.0 | 0.00 | 0.00 | 0.00 | 1 | 1013.8 |
| 20260905004017 | 64 | 336 | 16.0 | 23.0 | 0.00 | 0.00 | 0.00 | 1 | 1013.7 |
| 20260905003520 | 64 | 305 | 18.0 | 24.0 | 0.00 | 0.00 | 0.00 | 1 | 1013.9 |
| 20260905003054 | 65 | 310 | 13.0 | 25.0 | 0.00 | 0.00 | 0.00 | 1 | 1014.0 |
| 20260905002522 | 65 | 317 | 18.0 | 25.0 | 0.00 | 0.00 | 0.00 | 1 | 1014.0 |
| 20260905002022 | 65 | 323 | 17.0 | 26.0 | 0.00 | 0.00 | 0.00 | 1 | 1014.1 |
| 20260905001550 | 65 | 317 | 18.0 | 26.0 | 0.00 | 0.00 | 0.00 | 1 | 1014.3 |
| 20260905001018 | 66 | 307 | 14.0 | 20.0 | 0.00 | 0.00 | 0.00 | 1 | 1014.3 |
| 20260905000520 | 65 | 321 | 13.0 | 21.0 | 0.00 | 0.00 | 0.00 | 1 | 1014.6 |
| 20260905000050 | 64 | 292 | 13.0 | 21.0 | 0.00 | 0.00 | 0.00 | 1 | 1014.5 |
| 20260904235517 | 65 | 318 | 14.0 | 21.0 | 0.00 | 0.00 | 0.00 | 1 | 1014.6 |
| 20260904235017 | 66 | 297 | 11.0 | 20.0 | 0.00 | 0.00 | 0.00 | 1 | 1014.6 |
| 20260904234550 | 65 | 325 | 15.0 | 23.0 | 0.00 | 0.00 | 0.00 | 1 | 1014.3 |
| 20260904234019 | 66 | 307 | 16.0 | 23.0 | 0.00 | 0.00 | 0.00 | 1 | 1014.4 |
| 20260904233521 | 66 | 324 | 13.0 | 22.0 | 0.00 | 0.00 | 0.00 | 1 | 1014.4 |
| 20260904233058 | 67 | 299 | 14.0 | 22.0 | 0.00 | 0.00 | 0.00 | 1 | 1014.4 |
| 20260904232521 | 67 | 320 | 15.0 | 25.0 | 0.00 | 0.00 | 0.00 | 1 | 1014.5 |
| 20260904232019 | 67 | 331 | 16.0 | 25.0 | 0.00 | 0.00 | 0.00 | 1 | 1014.4 |
| 20260904231545 | 67 | 320 | 15.0 | 24.0 | 0.00 | 0.00 | 0.00 | 1 | 1014.3 |
| 20260904231016 | 67 | 360 | 15.0 | 23.0 | 0.00 | 0.00 | 0.00 | 1 | 1014.3 |
| 20260904230518 | 66 | 323 | 16.0 | 25.0 | 0.00 | 0.00 | 0.00 | 1 | 1014.2 |
| 20260904230051 | 67 | 317 | 14.0 | 20.0 | 0.00 | 0.00 | 0.00 | 1 | 1014.2 |
| 20260904225516 | 67 | 337 | 11.0 | 21.0 | 0.00 | 0.00 | 0.00 | 1 | 1014.2 |
| 20260904225017 | 67 | 274 | 14.0 | 21.0 | 0.00 | 0.00 | 0.00 | 1 | 1014.2 |
| 20260904224548 | 68 | 316 | 13.0 | 21.0 | 0.00 | 0.00 | 0.00 | 1 | 1014.0 |
| 20260904224018 | 68 | 313 | 14.0 | 21.0 | 0.00 | 0.00 | 0.00 | 1 | 1013.7 |
| 20260904223518 | 67 | 313 | 15.0 | 22.0 | 0.00 | 0.00 | 0.00 | 1 | 1013.7 |
| 20260904223046 | 66 | 331 | 15.0 | 25.0 | 0.00 | 0.00 | 0.00 | 1 | 1013.7 |
| 20260904222515 | 66 | 336 | 19.0 | 26.0 | 0.00 | 0.00 | 0.00 | 1 | 1013.8 |
| 20260904222017 | 67 | 312 | 17.0 | 25.0 | 0.00 | 0.00 | 0.00 | 1 | 1013.7 |
| 20260904221553 | 68 | 344 | 14.0 | 24.0 | 0.00 | 0.00 | 0.00 | 1 | 1013.8 |
| 20260904221019 | 66 | 323 | 17.0 | 24.0 | 0.00 | 0.00 | 0.00 | 1 | 1013.7 |
| 20260904220518 | 65 | 306 | 15.0 | 23.0 | 0.00 | 0.00 | 0.00 | 1 | 1013.7 |
| 20260904220105 | 66 | 306 | 13.0 | 23.0 | 0.00 | 0.00 | 0.00 | 1 | 1013.4 |
| 20260904215517 | 68 | 315 | 16.0 | 23.0 | 0.00 | 0.00 | 0.00 | 1 | 1013.3 |
| 20260904215017 | 67 | 316 | 16.0 | 23.0 | 0.00 | 0.00 | 0.00 | 1 | 1013.3 |
| 20260904214546 | 67 | 323 | 13.0 | 23.0 | 0.00 | 0.00 | 0.00 | 1 | 1013.3 |
| 20260904214019 | 68 | 299 | 14.0 | 25.0 | 0.00 | 0.00 | 0.00 | 1 | 1013.3 |
| 20260904213519 | 68 | 345 | 18.0 | 25.0 | 0.00 | 0.00 | 0.00 | 1 | 1013.1 |
| 20260904213052 | 68 | 309 | 15.0 | 24.0 | 0.00 | 0.00 | 0.00 | 1 | 1013.2 |
| 20260904212519 | 68 | 311 | 18.0 | 24.0 | 0.00 | 0.00 | 0.00 | 1 | 1013.0 |
| 20260904212018 | 68 | 294 | 17.0 | 24.0 | 0.00 | 0.00 | 0.00 | 1 | 1012.9 |
| 20260904211549 | 68 | 322 | 17.0 | 22.0 | 0.00 | 0.00 | 0.00 | 1 | 1012.9 |
| 20260904211020 | 68 | 304 | 13.0 | 24.0 | 0.00 | 0.00 | 0.00 | 1 | 1013.0 |
| 20260904210520 | 68 | 346 | 15.0 | 24.0 | 0.00 | 0.00 | 0.00 | 1 | 1012.9 |
| 20260904210050 | 68 | 327 | 16.0 | 25.0 | 0.00 | 0.00 | 0.00 | 1 | 1012.8 |
| 20260904205522 | 68 | 311 | 16.0 | 24.0 | 0.00 | 0.00 | 0.00 | 1 | 1012.6 |
| 20260904205022 | 67 | 311 | 15.0 | 24.0 | 0.00 | 0.00 | 0.00 | 1 | 1012.5 |
| 20260904204552 | 67 | 311 | 15.0 | 25.0 | 0.00 | 0.00 | 0.00 | 1 | 1012.4 |
| 20260904204019 | 66 | 355 | 17.0 | 25.0 | 0.00 | 0.00 | 0.00 | 1 | 1012.3 |
| 20260904203516 | 66 | 5 | 17.0 | 24.0 | 0.00 | 0.00 | 0.00 | 1 | 1012.3 |
| 20260904203052 | 66 | 350 | 17.0 | 24.0 | 0.00 | 0.00 | 0.00 | 1 | 1012.2 |
| 20260904202521 | 66 | 355 | 17.0 | 22.0 | 0.00 | 0.00 | 0.00 | 1 | 1012.3 |
| 20260904202020 | 65 | 306 | 15.0 | 23.0 | 0.00 | 0.00 | 0.00 | 1 | 1012.4 |
| 20260904201603 | 65 | 323 | 15.0 | 24.0 | 0.00 | 0.00 | 0.00 | 1 | 1012.4 |
| 20260904201020 | 64 | 321 | 17.0 | 22.0 | 0.00 | 0.00 | 0.00 | 1 | 1012.0 |
| 20260904200517 | 64 | 329 | 16.0 | 20.0 | 0.00 | 0.00 | 0.00 | 1 | 1012.2 |
| 20260904200051 | 64 | 306 | 14.0 | 21.0 | 0.00 | 0.00 | 0.00 | 1 | 1012.4 |
| 20260904195519 | 63 | 314 | 16.0 | 23.0 | 0.00 | 0.00 | 0.00 | 1 | 1012.1 |
| 20260904195017 | 62 | 323 | 18.0 | 23.0 | 0.00 | 0.00 | 0.00 | 1 | 1012.0 |
| 20260904194552 | 63 | 321 | 16.0 | 20.0 | 0.00 | 0.00 | 0.00 | 1 | 1011.7 |
| 20260904194021 | 62 | 306 | 15.0 | 20.0 | 0.00 | 0.00 | 0.00 | 1 | 1011.7 |
| 20260904193518 | 62 | 334 | 15.0 | 22.0 | 0.00 | 0.00 | 0.00 | 1 | 1011.5 |
| 20260904193050 | 62 | 338 | 16.0 | 22.0 | 0.00 | 0.00 | 0.00 | 1 | 1011.2 |
| 20260904192527 | 63 | 325 | 13.0 | 24.0 | 0.00 | 0.00 | 0.00 | 1 | 1011.3 |
| 20260904192022 | 63 | 351 | 16.0 | 23.0 | 0.00 | 0.00 | 0.00 | 1 | 1011.3 |
| 20260904191550 | 62 | 312 | 17.0 | 23.0 | 0.00 | 0.00 | 0.00 | 1 | 1011.2 |
| 20260904191023 | 62 | 321 | 14.0 | 20.0 | 0.00 | 0.00 | 0.00 | 1 | 1011.1 |
| 20260904190519 | 61 | 336 | 14.0 | 20.0 | 0.00 | 0.00 | 0.00 | 1 | 1011.1 |
| 20260904190046 | 62 | 313 | 14.0 | 19.0 | 0.00 | 0.00 | 0.00 | 1 | 1011.2 |
| 20260904185516 | 62 | 315 | 13.0 | 17.0 | 0.00 | 0.00 | 0.00 | 1 | 1011.2 |
| 20260904185018 | 63 | 312 | 14.0 | 17.0 | 0.00 | 0.00 | 0.00 | 1 | 1011.1 |
| 20260904184552 | 64 | 330 | 10.0 | 14.0 | 0.00 | 0.00 | 0.00 | 1 | 1011.0 |
| 20260904184016 | 64 | 326 | 8.0 | 13.0 | 0.00 | 0.00 | 0.00 | 1 | 1011.0 |
| 20260904183516 | 64 | 307 | 8.0 | 14.0 | 0.00 | 0.00 | 0.00 | 1 | 1011.0 |
| 20260904183058 | 63 | 315 | 10.0 | 15.0 | 0.00 | 0.00 | 0.00 | 1 | 1010.9 |
| 20260904182525 | 62 | 305 | 10.0 | 15.0 | 0.00 | 0.00 | 0.00 | 1 | 1010.9 |
| 20260904182023 | 62 | 335 | 11.0 | 16.0 | 0.00 | 0.00 | 0.00 | 1 | 1010.9 |
| 20260904181548 | 63 | 342 | 13.0 | 16.0 | 0.00 | 0.00 | 0.00 | 1 | 1010.6 |
| 20260904181020 | 63 | 323 | 11.0 | 16.0 | 0.00 | 0.00 | 0.00 | 1 | 1010.8 |
| 20260904180521 | 64 | 332 | 10.0 | 13.0 | 0.00 | 0.00 | 0.00 | 1 | 1010.8 |
| 20260904175521 | 65 | 227 | 3.0 | 10.0 | 0.00 | 0.00 | 0.00 | 1 | 1010.8 |
| 20260904175019 | 65 | 293 | 3.0 | 7.0 | 0.00 | 0.00 | 0.00 | 1 | 1010.6 |
| 20260904174548 | 65 | 274 | 4.0 | 6.0 | 0.00 | 0.00 | 0.00 | 1 | 1010.7 |
| 20260904174020 | 65 | 294 | 3.0 | 7.0 | 0.00 | 0.00 | 0.00 | 1 | 1010.7 |
| 20260904173518 | 64 | 300 | 3.0 | 5.0 | 0.00 | 0.00 | 0.00 | 1 | 1010.4 |
| 20260904173108 | 64 | 330 | 1.0 | 5.0 | 0.00 | 0.00 | 0.00 | 1 | 1010.3 |
| 20260904172520 | 64 | 349 | 2.0 | 8.0 | 0.00 | 0.00 | 0.00 | 1 | 1010.3 |
| 20260904172018 | 64 | 349 | 3.0 | 8.0 | 0.00 | 0.00 | 0.00 | 1 | 1010.2 |
| 20260904171555 | 63 | 360 | 5.0 | 8.0 | 0.00 | 0.00 | 0.00 | 1 | 1010.0 |
| 20260904171017 | 63 | 339 | 5.0 | 8.0 | 0.00 | 0.00 | 0.00 | 1 | 1010.0 |
| 20260904170516 | 63 | 318 | 5.0 | 9.0 | 0.00 | 0.00 | 0.00 | 1 | 1010.1 |
| 20260904165521 | 63 | 277 | 6.0 | 10.0 | 0.00 | 0.00 | 0.00 | 1 | 1010.3 |
| 20260904165018 | 63 | 256 | 7.0 | 10.0 | 0.00 | 0.00 | 0.00 | 1 | 1010.2 |
| 20260904164549 | 63 | 252 | 3.0 | 10.0 | 0.00 | 0.00 | 0.00 | 1 | 1010.1 |
| 20260904164018 | 63 | 214 | 8.0 | 10.0 | 0.00 | 0.00 | 0.00 | 1 | 1010.3 |
| 20260904163522 | 63 | 199 | 2.0 | 8.0 | 0.00 | 0.00 | 0.00 | 1 | 1010.1 |
| 20260904163047 | 63 | 272 | 0.0 | 7.0 | 0.00 | 0.00 | 0.00 | 1 | 1010.1 |
| 20260904162519 | 63 | 272 | 1.0 | 11.0 | 0.00 | 0.00 | 0.00 | 1 | 1010.0 |
| 20260904162017 | 63 | 265 | 4.0 | 12.0 | 0.00 | 0.00 | 0.00 | 1 | 1010.3 |
| 20260904161550 | 64 | 241 | 9.0 | 12.0 | 0.00 | 0.00 | 0.00 | 1 | 1010.4 |
| 20260904161017 | 64 | 198 | 6.0 | 10.0 | 0.00 | 0.00 | 0.00 | 1 | 1010.2 |
| 20260904160526 | 64 | 167 | 6.0 | 11.0 | 0.00 | 0.00 | 0.00 | 1 | 1010.0 |
| 20260904160048 | 64 | 198 | 6.0 | 12.0 | 0.00 | 0.00 | 0.00 | 1 | 1010.0 |
| 20260904155520 | 65 | 188 | 8.0 | 14.0 | 0.00 | 0.00 | 0.00 | 1 | 1010.1 |
| 20260904155021 | 65 | 195 | 11.0 | 14.0 | 0.00 | 0.00 | 0.00 | 1 | 1010.2 |
| 20260904154549 | 66 | 155 | 7.0 | 15.0 | 0.00 | 0.00 | 0.00 | 1 | 1010.0 |
| 20260904154019 | 66 | 137 | 11.0 | 17.0 | 0.00 | 0.00 | 0.00 | 1 | 1009.7 |
| 20260904153519 | 66 | 143 | 12.0 | 17.0 | 0.00 | 0.00 | 0.00 | 1 | 1009.4 |
| 20260904153105 | 66 | 131 | 9.0 | 16.0 | 0.00 | 0.00 | 0.00 | 1 | 1009.5 |
| 20260904152518 | 66 | 119 | 10.0 | 17.0 | 0.00 | 0.00 | 0.00 | 1 | 1009.2 |
| 20260904152020 | 66 | 101 | 12.0 | 22.0 | 0.00 | 0.00 | 0.00 | 1 | 1008.9 |
| 20260904151551 | 65 | 92 | 15.0 | 22.0 | 0.00 | 0.00 | 0.00 | 1 | 1008.3 |
| 20260904151019 | 65 | 107 | 17.0 | 22.0 | 0.00 | 0.00 | 0.00 | 1 | 1008.0 |
| 20260904150524 | 65 | 105 | 17.0 | 21.0 | 0.00 | 0.00 | 0.00 | 1 | 1008.1 |
| 20260904150052 | 66 | 82 | 13.0 | 21.0 | 0.00 | 0.00 | 0.00 | 1 | 1008.2 |
| 20260904145520 | 65 | 86 | 12.0 | 18.0 | 0.00 | 0.00 | 0.00 | 1 | 1008.4 |
| 20260904145018 | 64 | 56 | 11.0 | 15.0 | 0.00 | 0.00 | 0.00 | 1 | 1008.1 |
| 20260904144552 | 64 | 71 | 10.0 | 15.0 | 0.00 | 0.00 | 0.00 | 1 | 1008.4 |
| 20260904144017 | 64 | 102 | 10.0 | 18.0 | 0.00 | 0.00 | 0.00 | 1 | 1008.3 |
| 20260904143518 | 64 | 89 | 13.0 | 18.0 | 0.00 | 0.00 | 0.00 | 1 | 1008.5 |
| 20260904143056 | 64 | 94 | 12.0 | 17.0 | 0.00 | 0.00 | 0.00 | 1 | 1008.4 |
| 20260904142517 | 64 | 94 | 11.0 | 17.0 | 0.00 | 0.00 | 0.00 | 1 | 1008.3 |
| 20260904142018 | 64 | 71 | 11.0 | 16.0 | 0.00 | 0.00 | 0.00 | 1 | 1008.6 |
| 20260904141551 | 63 | 74 | 11.0 | 16.0 | 0.00 | 0.00 | 0.00 | 1 | 1008.5 |
| 20260904141016 | 62 | 80 | 10.0 | 14.0 | 0.00 | 0.00 | 0.00 | 1 | 1008.6 |
| 20260904140519 | 61 | 89 | 9.0 | 13.0 | 0.00 | 0.00 | 0.00 | 1 | 1008.8 |
| 20260904140050 | 61 | 69 | 9.0 | 13.0 | 0.00 | 0.00 | 0.00 | 1 | 1008.7 |
| 20260904135519 | 61 | 88 | 9.0 | 13.0 | 0.00 | 0.00 | 0.00 | 1 | 1008.6 |
| 20260904135021 | 61 | 82 | 8.0 | 13.0 | 0.00 | 0.00 | 0.00 | 1 | 1008.7 |
| 20260904134606 | 60 | 60 | 8.0 | 12.0 | 0.00 | 0.00 | 0.00 | 1 | 1008.9 |
| 20260904134018 | 60 | 71 | 8.0 | 13.0 | 0.00 | 0.00 | 0.00 | 1 | 1008.8 |
| 20260904133517 | 60 | 66 | 9.0 | 13.0 | 0.00 | 0.00 | 0.00 | 1 | 1008.7 |
| 20260904133055 | 60 | 71 | 9.0 | 13.0 | 0.00 | 0.00 | 0.00 | 1 | 1008.7 |
| 20260904132517 | 60 | 69 | 10.0 | 13.0 | 0.00 | 0.00 | 0.00 | 1 | 1008.9 |
| 20260904132020 | 60 | 60 | 10.0 | 13.0 | 0.00 | 0.00 | 0.00 | 1 | 1008.8 |
| 20260904131552 | 60 | 63 | 9.0 | 13.0 | 0.00 | 0.00 | 0.00 | 1 | 1008.7 |
| 20260904131018 | 60 | 82 | 9.0 | 14.0 | 0.00 | 0.00 | 0.00 | 1 | 1008.5 |
| 20260904130521 | 60 | 78 | 10.0 | 14.0 | 0.00 | 0.00 | 0.00 | 1 | 1008.7 |
| 20260904130059 | 60 | 73 | 9.0 | 13.0 | 0.00 | 0.00 | 0.00 | 1 | 1008.4 |
| 20260904125519 | 59 | 69 | 9.0 | 13.0 | 0.00 | 0.00 | 0.00 | 1 | 1008.2 |
| 20260904125019 | 59 | 74 | 11.0 | 14.0 | 0.00 | 0.00 | 0.00 | 1 | 1008.3 |
| 20260904124602 | 58 | 46 | 10.0 | 14.0 | 0.00 | 0.00 | 0.00 | 1 | 1008.1 |
| 20260904124017 | 58 | 63 | 10.0 | 13.0 | 0.00 | 0.00 | 0.00 | 1 | 1008.2 |
| 20260904123521 | 59 | 61 | 9.0 | 14.0 | 0.00 | 0.00 | 0.00 | 1 | 1008.2 |
| 20260904123052 | 59 | 58 | 9.0 | 14.0 | 0.00 | 0.00 | 0.00 | 1 | 1008.3 |
| 20260904122519 | 60 | 51 | 10.0 | 13.0 | 0.00 | 0.00 | 0.00 | 1 | 1008.1 |
| 20260904122020 | 60 | 61 | 9.0 | 13.0 | 0.00 | 0.00 | 0.00 | 1 | 1008.3 |
| 20260904121558 | 60 | 63 | 9.0 | 14.0 | 0.00 | 0.00 | 0.00 | 1 | 1008.3 |
| 20260904121019 | 60 | 67 | 9.0 | 16.0 | 0.00 | 0.00 | 0.00 | 1 | 1008.2 |
| 20260904120521 | 60 | 69 | 11.0 | 14.0 | 0.00 | 0.00 | 0.00 | 1 | 1008.4 |
| 20260904120110 | 61 | 62 | 10.0 | 16.0 | 0.00 | 0.00 | 0.00 | 1 | 1008.3 |
| 20260904115519 | 61 | 59 | 10.0 | 16.0 | 0.00 | 0.00 | 0.00 | 1 | 1008.2 |
| 20260904115025 | 61 | 56 | 10.0 | 16.0 | 0.00 | 0.00 | 0.00 | 1 | 1008.4 |
| 20260904114552 | 61 | 63 | 10.0 | 16.0 | 0.00 | 0.00 | 0.00 | 1 | 1008.5 |
| 20260904114021 | 61 | 59 | 11.0 | 16.0 | 0.00 | 0.00 | 0.00 | 1 | 1008.3 |
| 20260904113521 | 61 | 59 | 12.0 | 17.0 | 0.00 | 0.00 | 0.00 | 1 | 1008.0 |
| 20260904113051 | 62 | 61 | 12.0 | 17.0 | 0.00 | 0.00 | 0.00 | 1 | 1008.0 |